Reno, NV

7:39 AM PST on December 09, 2019 (GMT -0800)
Reno-Tahoe International

Weather History for KRNO - August, 2019

Change the Weather History Date:

Wednesday, August 28, 2019

  Actual Average Record
Temperature  
Mean Temperature 82 °F 71 °F  
Max Temperature 99 °F 88 °F 99 °F (2001)
Min Temperature 66 °F 53 °F 28 °F (1962)
Degree Days  
Heating Degree Days 0 0  
Month to date heating degree days 0 0  
Since 1 June heating degree days 15 61  
Since 1 July heating degree days 0 5  
Cooling Degree Days 18 6  
Month to date cooling degree days 364 241  
Year to date cooling degree days 955 728  
Since 1 June cooling degree days 941 691  
Growing Degree Days 32 (Base 50)    
Moisture  
Dew Point 42 °F    
Average Humidity 27    
Maximum Humidity 45    
Minimum Humidity 13    
Precipitation  
Precipitation 0.00 in 0.00 in 0.40 in (1929)
Month to date precipitation T 0.21  
Year to date precipitation 8.76 4.67  
Snow  
Snow 0.00 in 0.00 in 0.00 in ()
Month to date snowfall 0.0 0.0  
Since 1 June snowfall 0.0 T  
Since 1 July snowfall 0.0 0.0  
Snow Depth 0.00 in    
Sea Level Pressure  
Sea Level Pressure 29.87 in    
Wind  
Wind Speed 4 mph ()    
Max Wind Speed 26 mph    
Max Gust Speed 33 mph    
Visibility 10.0 miles    
Events      
T = Trace of Precipitation, MM = Missing Value Source: Averaged Metar Reports

Daily Weather History Graph

Daily Weather History Graph

Search for Another Location

Airport or City:

Astronomy

Aug. 28, 2019 Rise Set
Actual Time 6:23 AM PDT 7:36 PM PDT
Civil Twilight 5:55 AM PDT 8:04 PM PDT
Nautical Twilight 5:22 AM PDT 8:37 PM PDT
Astronomical Twilight 4:47 AM PDT 9:11 PM PDT
Moon 4:02 AM PDT (8/28) 6:51 PM PDT (8/28)
Length of Visible Light 14h 08m
Length of Day
13h 12m
Waning Crescent, 4% of the Moon is Illuminated
Aug 28
Waning Crescent
Aug 30
New
Sep 5
First Quarter
Sep 13
Full
Sep 21
Last Quarter

Hourly Weather History & Observations

Time (PDT) Temp. Dew Point Humidity Pressure Visibility Wind Dir Wind Speed Gust Speed Precip Events Conditions
12:55 AM 72.0 °F 41.0 °F 33% 29.86 in 10.0 mi Calm Calm - N/A   Clear
1:55 AM 72.0 °F 42.1 °F 34% 29.86 in 10.0 mi SSW 3.5 mph - N/A   Clear
2:55 AM 68.0 °F 42.1 °F 39% 29.86 in 10.0 mi Calm Calm - N/A   Clear
3:55 AM 69.1 °F 42.1 °F 38% 29.86 in 10.0 mi Calm Calm - N/A   Partly Cloudy
4:55 AM 66.9 °F 44.1 °F 44% 29.87 in 10.0 mi South 3.5 mph - N/A   Mostly Cloudy
5:55 AM 66.9 °F 44.1 °F 44% 29.88 in 10.0 mi Calm Calm - N/A   Mostly Cloudy
6:55 AM 66.0 °F 43.0 °F 43% 29.89 in 10.0 mi Calm Calm - N/A   Mostly Cloudy
7:55 AM 69.1 °F 44.1 °F 40% 29.90 in 10.0 mi Calm Calm - N/A   Partly Cloudy
8:55 AM 75.9 °F 45.0 °F 33% 29.90 in 10.0 mi Calm Calm - N/A   Partly Cloudy
9:55 AM 80.1 °F 44.1 °F 28% 29.90 in 10.0 mi Calm Calm - N/A   Partly Cloudy
10:55 AM 87.1 °F 44.1 °F 22% 29.88 in 10.0 mi Calm Calm - N/A   Partly Cloudy
11:55 AM 91.0 °F 43.0 °F 19% 29.87 in 10.0 mi Calm Calm - N/A   Partly Cloudy
12:55 PM 95.0 °F 39.0 °F 14% 29.84 in 10.0 mi Variable 4.6 mph - N/A   Partly Cloudy
1:55 PM 98.1 °F 39.0 °F 13% 29.82 in 10.0 mi ENE 9.2 mph - N/A   Scattered Clouds
2:55 PM 98.1 °F 39.0 °F 13% 29.79 in 10.0 mi North 11.5 mph 19.6 mph N/A   Mostly Cloudy
3:55 PM 96.1 °F 45.0 °F 17% 29.79 in 10.0 mi West 12.7 mph - N/A   Mostly Cloudy
4:55 PM 97.0 °F 43.0 °F 16% 29.79 in 10.0 mi West 12.7 mph 23.0 mph N/A   Mostly Cloudy
5:55 PM 93.0 °F 43.0 °F 18% 29.81 in 10.0 mi West 19.6 mph 29.9 mph N/A   Scattered Clouds
6:55 PM 88.0 °F 41.0 °F 19% 29.84 in 10.0 mi West 23.0 mph 33.4 mph N/A   Scattered Clouds
7:55 PM 84.9 °F 41.0 °F 21% 29.88 in 10.0 mi WNW 17.3 mph 26.5 mph N/A   Partly Cloudy
8:55 PM 82.0 °F 41.0 °F 23% 29.91 in 10.0 mi NNW 18.4 mph 24.2 mph N/A   Partly Cloudy
9:55 PM 80.1 °F 41.0 °F 25% 29.92 in 10.0 mi NW 13.8 mph - N/A   Clear
10:55 PM 77.0 °F 42.1 °F 29% 29.93 in 10.0 mi NNW 5.8 mph - N/A   Clear
11:55 PM 73.9 °F 42.1 °F 32% 29.93 in 10.0 mi SE 4.6 mph - N/A   Clear